Rbgn^[z[y[W
メイン
   新天体発見情報
     Comet C/2019 K4 (Ye)
投稿するにはまず登録を

フラット表示 前のトピック | 次のトピック
投稿者 スレッド
佐藤裕久
投稿日時: 2019-7-7 23:45
モデレータ
登録日: 2005-6-12
居住地: 日本
投稿: 2505
オンライン
Comet C/2019 K4 (Ye)

Quanzhi Ye (叶泉志:カリフォルニア工科大学)の通報によると、5月30日、Palomarにある1.2-m
f/2.4 Oschin Schmidt望遠鏡のZTFカメラで得たCCD画像から彗星を発見した。
この天体は、中程度の集光で、約6"〜8"のコマがあり、北西(p.a.310°)におよそ40" の広がった
尾がある。
Yeは、5月31.8日UT、Xing Gao (高興)が比較的高いエアマス(AM2.9)の南山(中国)にある星明天文台
(Xingming Observatory)の0.6-m f/8 Ritchey-Chretien望遠鏡を使用したフォローアップ画像を得た。
10分間の積分合計したスタックイメージは、かすかに北西に向かって5"伸びて広がった尾が見えた。
小惑星センターのPCCP webpageに公表後、J.-F. Soulier (Maisoncelles, Seine et Marne, フラン
ス, 30-cm f/4 反射望遠鏡)や佐藤英貴氏(東京都文京区, iTelescope Sierra Remote 天文台, 0.61-
m f/6.5 アストログラフ, Auberry, カリフォルニア州, 遠隔操作)らCCD位置観測者によって彗星状と
観測された。

発見位置は次のとおり、

     2019 UT             R.A. (2000) Decl.       Mag.   Observer
     May  30.46046    1 13 24.87   +45 07 57.0   17.1   Ye
          30.46322    1 13 25.02   +45 07 56.1   17.0    "
          30.46553    1 13 25.16   +45 07 55.3   17.2    "
          30.46927    1 13 25.38   +45 07 54.6   17.1    "

準放物線軌道要素と位置推算表は次のとおり、

Orbital elements:
    C/2019 K4 (Ye)
Epoch 2019 June 6.0 TT = JDT 2458640.5
T 2019 June 16.50895 TT                                 MPCW
q   2.2571055            (2000.0)            P               Q
z  +0.0016349      Peri.  139.80153     +0.76344071     +0.64587451
 +/-0.000335       Node   180.12459     -0.08967685     +0.10921509
e   0.9963098      Incl.  105.31620     +0.63962203     -0.75559128
From 97 observations 2019 Apr. 24-June 24, mean residual 0".5.

Ephemeris:
Date    TT    R. A. (2000) Decl.     Delta      r    Elong.  Phase   m1
2019 05 25    01 07 47.9 +45 40 37   2.8918  2.2717    43.8    18.0  18.4
...
2019 06 09    01 21 50.8 +44 10 07   2.7685  2.2587    50.3    20.2  18.2
...
2019 06 17    01 27 30.1 +43 18 54   2.6830  2.2571    54.9    21.6  18.2
...
2019 06 23    01 30 49.8 +42 37 37   2.6106  2.2583    58.8    22.6  18.1
2019 06 24    01 31 18.2 +42 30 25   2.5978  2.2587    59.5    22.8  18.1
2019 06 25    01 31 45.3 +42 23 07   2.5849  2.2592    60.2    23.0  18.1
...
2019 07 01    01 33 56.0 +41 36 52   2.5038  2.2632    64.6    24.0  18.0
...
2019 07 09    01 35 20.2 +40 26 45   2.3868  2.2717    71.1    25.1  18.0
...
2019 07 24    01 32 39.3 +37 35 28   2.1481  2.2973    85.2    26.1  17.8

    This object was reported as a possible comet by Q.-Z. Ye (I41, May 30),
who described it as having a moderately-condensed coma 6"-8" in diameter and a
broad ~40" tail in P.A. 310.  Ye (C42, May 31) reported a faint, broad ~5" tail
to the NW, from observations made at high airmass.  Other reports of cometary
features are listed below:

OC   Date     Reporter           Coma    Tail
G40  June  1  B. Lutkenhoner             ~12" in P.A. 290
C10  June  2  J.-F. Soulier      ~15"    ~19" in P.A. ~310
I41  Apr. 24  Q.-Z. Ye                   ~5" in P.A. 320
A77  May  31  F. Kugel                   20" in P.A. 328
G40  June  2  G. Gasparovic        5"    15" in P.A. 290      (25 x 50s)
705  June  4  B. Bolin                   ~15" in P.A. 300     (3 x 60s)
U69  June  3  H. Sato             10"    No tail
N55  June  5  T. Chen           6" x 9"                       (28 x 40s)
N55  June  6  T. Chen              4"                         (21 x 40s)
N55  June  7  T. Chen             ~6"    ~10" in P.A. 282-344 (16 x 40s)
Z84  June  8  E. Schwab                  ~15" in P.A. 295
H06  June  5  H. Sato             18"    No tail
K88  June 10  K. Sarneczky      4" - 5"  16"-18" in P.A. 300  (6 x 60s)
N55  June  9  T. Chen              7"    ~10" in P.A. 300     (19 x 40s)

(CBET 4636、MPEC 2019-M70)

フラット表示 前のトピック | 次のトピック

題名 投稿者 日時
 » Comet C/2019 K4 (Ye) 佐藤裕久 2019-7-7 23:45

投稿するにはまず登録を
 
© 1999 Tsutomu Seki.